This demonstration page uses our WeatherBlox Daily Observations layout. Learn more.

Left ArrowRight Arrow

34.16533, -84.80231

Hourly Observations for October 12, 2015

Temp ( °F °C ) Dew Point ( °F °C ) Humidity (%) Winds ( mph kmh ) Pressure ( in mb ) Visibility ( mi km ) Precip ( " mm )
12:53 am 00:53 Clear with Mist and Fog 53 11.7 53 11.7 100 100 Calm 29.93 1014 6 10 0.00 0.00
1:53 am 01:53 Clear with Mist and Fog 53 11.7 53 11.7 100 100 Calm 29.93 1014 6 10 0.00 0.00
2:53 am 02:53 Mostly Clear 52 11.1 52 11.1 100 100 Calm 29.93 1014 9 14 0.00 0.00
3:53 am 03:53 Clear with Mist and Fog 52 11.1 51 10.6 97 97 Calm 29.91 1013 6 10 0.00 0.00
4:45 am 04:45 Mostly Clear 52 11.1 51 10.6 97 97 Calm 29.97 1015 8 13 0.00 0.00
4:53 am 04:53 Mostly Clear 51 10.6 51 10.6 100 100 Calm 29.91 1013 7 11 0.00 0.00
5:53 am 05:53 Clear 51 10.6 51 10.6 100 100 Calm 29.90 1013 10 16 0.00 0.00
6:53 am 06:53 Mostly Clear 49 9.4 49 9.4 100 100 Calm 29.91 1013 9 14 0.00 0.00
7:06 am 07:06 Mostly Cloudy with Mist and Fog 50 10 50 10 100 100 Calm 29.97 1015 6 10 0.00 0.00
7:36 am 07:36 Cloudy with Mist and Fog 50 10 50 10 100 100 Calm 30.00 1016 2 3 0.00 0.00
7:50 am 07:50 Mostly Cloudy with Fog 50 10 50 10 100 100 Calm 30.00 1016 1 1 0.00 0.00
7:53 am 07:53 Mostly Cloudy with Fog 51 10.6 51 10.6 100 100 Calm 29.93 1014 1 1 0.00 0.00
8:01 am 08:01 Mostly Cloudy with Fog 50 10 50 10 100 100 Calm 30.00 1016 0 0 0.00 0.00
8:12 am 08:12 Mostly Cloudy with Mist and Fog 50 10 50 10 100 100 Calm 29.97 1015 1 2 0.00 0.00
8:17 am 08:17 Mostly Cloudy with Mist and Fog 49 9.4 49 9.4 100 100 Calm 29.97 1015 3 5 0.00 0.00
8:21 am 08:21 Partly Cloudy 50 10 49 9.4 96 96 Calm 29.97 1015 7 11 0.00 0.00
8:53 am 08:53 Mostly Cloudy 54 12.2 54 12.2 100 100 Calm 29.93 1014 9 14 0.00 0.00
9:32 am 09:32 Cloudy 58 14.4 57 13.9 97 97 Calm 29.97 1015 10 16 0.00 0.00
9:53 am 09:53 Cloudy with Mist and Fog 58 14.4 58 14.4 100 100 Calm 29.95 1014 3 4 0.00 0.00
10:07 am 10:07 Cloudy with Mist and Fog 58 14.4 58 14.4 100 100 Calm 29.97 1015 6 10 0.00 0.00
10:53 am 10:53 Cloudy 60 15.6 58 14.4 93 93 Calm 29.94 1014 10 16 0.00 0.00
11:11 am 11:11 Cloudy 61 16.1 59 15 93 93 Calm 29.97 1015 10 16 0.00 0.00
11:38 am 11:38 Mostly Sunny 65 18.3 59 15 81 81 Calm 29.97 1015 10 16 0.00 0.00
11:53 am 11:53 Sunny 66 18.9 59 15 78 78 Calm 29.93 1014 10 16 0.00 0.00
12:53 pm 12:53 Sunny 71 21.7 58 14.4 63 63 VRB 3 6 29.91 1013 10 16 0.00 0.00
1:53 pm 13:53 Partly Cloudy 74 23.3 56 13.3 54 54 VRB 3 6 29.88 1012 10 16 0.00 0.00
2:53 pm 14:53 Sunny 75 23.9 54 12.2 48 48 S 7 11 29.85 1011 10 16 0.00 0.00
3:53 pm 15:53 Sunny 75 23.9 52 11.1 45 45 S 5 7 29.82 1010 10 16 0.00 0.00
4:53 pm 16:53 Sunny 76 24.4 52 11.1 43 43 VRB 5 7 29.81 1010 10 16 0.00 0.00
5:53 pm 17:53 Sunny 74 23.3 55 12.8 52 52 Calm 29.80 1009 10 16 0.00 0.00
6:53 pm 18:53 Sunny 63 17.2 59 15 87 87 S 3 6 29.81 1009 10 16 0.00 0.00
7:53 pm 19:53 Clear 62 16.7 57 13.9 84 84 Calm 29.80 1009 10 16 0.00 0.00
8:53 pm 20:53 Clear 62 16.7 56 13.3 80 80 S 3 6 29.80 1009 10 16 0.00 0.00
9:53 pm 21:53 Clear 62 16.7 55 12.8 78 78 Calm 29.80 1009 10 16 0.00 0.00
10:53 pm 22:53 Mostly Clear 60 15.6 55 12.8 84 84 Calm 29.80 1009 10 16 0.00 0.00
11:53 pm 23:53 Mostly Cloudy 62 16.7 56 13.3 80 80 Calm 29.78 1009 10 16 0.00 0.00

Powered by AerisWeather